Regional Weather Roundup
Issued by NWS Albany, NY

Home | Current Version | Previous Version | Text Only | Print | Product List | Glossary On
Versions: 1 2 3 4 5 6 7 8 9 10 11 12 13 14 15 16 17 18 19 20 21 22 23 24 25 26 27
000
ASUS41 KALY 222110
RWRALY

NEW YORK STATE HOURLY WEATHER ROUNDUP
NATIONAL WEATHER SERVICE ALBANY NY
400 PM EST WED FEB 22 2017

NOTE: "FAIR" INDICATES FEW OR NO CLOUDS BELOW 12,000 FEET WITH NO
SIGNIFICANT WEATHER AND/OR NO OBSTRUCTIONS TO VISIBILITY.

NYZ032-033-038>043-046>054-057>066-NYZ062>081-082-084-222200-
EAST


CITY           SKY/WX    TMP DP  RH WIND       PRES   REMARKS
ALBANY         PTSUNNY   57  36  45 VRB6      29.87F
GLENS FALLS    SUNNY     56  37  49 S6        29.85F
POUGHKEEPSIE   MOSUNNY   53  38  56 CALM      29.89S
NEWBURGH       MOSUNNY   52  41  66 VRB6      29.91S
MONTGOMERY     MOSUNNY   53  41  63 S6        29.89R
WHITE PLAINS   MOSUNNY   52  38  58 E3        29.89F
ISLIP          PTSUNNY   50  41  71 SW7       29.91F
NEW YORK CITY  PTSUNNY   57  39  51 S8        29.90S
CENTRAL PARK   CLOUDY    57  38  48 W6        29.93S
$$

NYZ005>009-017-018-044>046-055-056-222200-
CENTRAL


CITY           SKY/WX    TMP DP  RH WIND       PRES   REMARKS
FULTON         PTSUNNY   56  36  47 SE3       29.82F
SYRACUSE       PTSUNNY   59  37  44 NE5       29.81F
ROME           MOSUNNY   57  36  45 E6        29.85F
ELMIRA         CLOUDY    62  41  46 CALM      29.83F
BINGHAMTON     MOSUNNY   55  41  59 SW6       29.85S
MONTICELLO     SUNNY     54  39  58 CALM      29.89F
$$

NYZ026>034-041>043-087-222200-
NORTH


CITY           SKY/WX    TMP DP  RH WIND       PRES   REMARKS
WATERTOWN      CLOUDY    54  40  59 N5        29.82F
FORT DRUM      NOT AVBL
OGDENSBURG     PTSUNNY   53  38  58 CALM      29.84F
MASSENA        MOSUNNY   45  36  70 NE7       29.87F
SARANAC LAKE   SUNNY     55  33  43 SW12      29.81R
PLATTSBURGH    SUNNY     50  33  52 CALM      29.86S
$$

NYZ001>004-010>016-019>021-085-222200-
WEST


CITY           SKY/WX    TMP DP  RH WIND       PRES   REMARKS
NIAGARA FALLS  CLOUDY    57  51  80 SW15      29.80S HAZE
BUFFALO        CLOUDY    53  48  83 SW6       29.82S HAZE
DUNKIRK        CLOUDY    58  52  80 S8        29.83S
JAMESTOWN      CLOUDY    52  48  87 S3        29.84F VSB 1
WELLSVILLE     LGT RAIN  56  50  80 SW9       29.86F
ROCHESTER      PTSUNNY   62  49  62 W5        29.82S
PENN YAN       CLOUDY    61  40  45 N3        29.82F
$$

             KEY
       WCI = WIND CHILL INDEX
       VSB = VISIBILITY
       HX  = HEAT INDEX
$$




USA.gov is the U.S. government's official web portal to all federal, state and local government web resources and services.